Terug naar catalogus

PSLV R/B

ActiefHEO
NORAD 39636·ROCKET BODY·🇮🇳 India

Gelanceerd Apr 4, 2014 vanaf Satish Dhawan Space Centre

Loading…

Volgende Passages (komende 24 uur)

TLE

VersSource: Space-Track

Epoch: Sep 13, 2026, 22:59 UTC

1 39636U 14017B   26256.95785355  .00004112  00000-0  65804-3 0  9992
2 39636  19.0349 134.3214 5731128 264.4494  31.3796  4.45896014188000

Volg PSLV R/B in realtime met AllMySat

Download on the App Store